Year,Month,Day,Hour,Minute,Value (Times are PST for temperature in C)
2015,02,20,10,18,8.70
2015,02,20,10,19,8.70
2015,02,20,10,20,8.70
2015,02,20,10,21,8.80
2015,02,20,10,22,8.90
2015,02,20,10,23,8.90
2015,02,20,10,24,8.90
2015,02,20,10,25,8.90
2015,02,20,10,26,8.90
2015,02,20,10,27,9.00
2015,02,20,10,28,9.00
2015,02,20,10,29,9.10
2015,02,20,10,30,9.10
2015,02,20,10,31,9.20
2015,02,20,10,32,9.20
2015,02,20,10,33,9.30
2015,02,20,10,34,9.30
2015,02,20,10,35,9.40
2015,02,20,10,36,9.50
2015,02,20,10,37,9.60
2015,02,20,10,38,9.70
2015,02,20,10,39,9.70
2015,02,20,10,40,9.70
2015,02,20,10,41,9.70
2015,02,20,10,42,9.70
2015,02,20,10,43,9.70
2015,02,20,10,44,9.70
2015,02,20,10,45,9.70
2015,02,20,10,46,9.70
2015,02,20,10,47,9.70
2015,02,20,10,48,9.70
2015,02,20,10,49,9.70
2015,02,20,10,50,9.70
2015,02,20,10,51,9.70
2015,02,20,10,52,9.80
2015,02,20,10,53,9.90
2015,02,20,10,54,9.90
2015,02,20,10,55,9.90
2015,02,20,10,56,9.90
2015,02,20,10,57,10.10
2015,02,20,10,58,10.10
2015,02,20,10,59,10.10
2015,02,20,11,00,10.10
2015,02,20,11,01,10.00
2015,02,20,11,02,9.90
2015,02,20,11,03,10.10
2015,02,20,11,04,10.10
2015,02,20,11,05,10.10
2015,02,20,11,06,10.10
2015,02,20,11,07,10.20
2015,02,20,11,08,10.20
2015,02,20,11,09,10.20
2015,02,20,11,10,10.20
2015,02,20,11,11,10.30
2015,02,20,11,12,10.30
2015,02,20,11,13,10.40
2015,02,20,11,14,10.40
2015,02,20,11,15,10.30
2015,02,20,11,16,10.40
2015,02,20,11,17,10.40
2015,02,20,11,18,10.40
2015,02,20,11,19,10.40
2015,02,20,11,20,10.40
2015,02,20,11,21,10.40
2015,02,20,11,22,10.30
2015,02,20,11,23,10.30
2015,02,20,11,24,10.30
2015,02,20,11,25,10.40
2015,02,20,11,26,10.40
2015,02,20,11,27,10.50
2015,02,20,11,28,10.60
2015,02,20,11,29,10.60
2015,02,20,11,30,10.60
2015,02,20,11,31,10.60
2015,02,20,11,32,10.60
2015,02,20,11,33,10.60
2015,02,20,11,34,10.60
2015,02,20,11,35,10.60
2015,02,20,11,36,10.60
2015,02,20,11,37,10.60
2015,02,20,11,38,10.60
2015,02,20,11,39,10.60
2015,02,20,11,40,10.50
2015,02,20,11,41,10.40
2015,02,20,11,42,10.40
2015,02,20,11,43,10.40
2015,02,20,11,44,10.40
2015,02,20,11,45,10.40
2015,02,20,11,46,10.40
2015,02,20,11,47,10.40
2015,02,20,11,48,10.40
2015,02,20,11,49,10.40
2015,02,20,11,50,10.30
2015,02,20,11,51,10.30
2015,02,20,11,52,10.30
2015,02,20,11,53,10.20
2015,02,20,11,54,10.20
2015,02,20,11,55,10.20
2015,02,20,11,56,10.20
2015,02,20,11,57,10.20
2015,02,20,11,58,10.10
2015,02,20,11,59,10.00
2015,02,20,12,00,9.90
2015,02,20,12,01,9.90
2015,02,20,12,02,9.80
2015,02,20,12,03,9.80
2015,02,20,12,04,9.80
2015,02,20,12,05,9.80
2015,02,20,12,06,9.70
2015,02,20,12,07,9.70
2015,02,20,12,08,9.70
2015,02,20,12,09,9.70
2015,02,20,12,10,9.70
2015,02,20,12,11,9.70
2015,02,20,12,12,9.70
2015,02,20,12,13,9.70
2015,02,20,12,14,9.70
2015,02,20,12,15,9.70
2015,02,20,12,16,9.70
2015,02,20,12,17,9.80
2015,02,20,12,18,9.80
2015,02,20,12,19,9.80
2015,02,20,12,20,9.80
2015,02,20,12,21,9.80
2015,02,20,12,22,9.80
2015,02,20,12,23,9.90
2015,02,20,12,24,9.90
2015,02,20,12,25,9.90
2015,02,20,12,26,9.90
2015,02,20,12,27,9.90
2015,02,20,12,28,9.90
2015,02,20,12,29,9.90
2015,02,20,12,30,10.00
2015,02,20,12,31,10.10
2015,02,20,12,32,10.10
2015,02,20,12,33,10.10
2015,02,20,12,34,10.20
2015,02,20,12,35,10.20
2015,02,20,12,36,10.20
2015,02,20,12,37,10.20
2015,02,20,12,38,10.20
2015,02,20,12,39,10.30
2015,02,20,12,40,10.30
2015,02,20,12,41,10.30
2015,02,20,12,42,10.30
2015,02,20,12,43,10.30
2015,02,20,12,44,10.20
2015,02,20,12,45,10.20
2015,02,20,12,46,10.20
2015,02,20,12,47,10.20
2015,02,20,12,48,10.20
2015,02,20,12,49,10.20
2015,02,20,12,50,10.30
2015,02,20,12,51,10.30
2015,02,20,12,52,10.30
2015,02,20,12,53,10.30
2015,02,20,12,54,10.30
2015,02,20,12,55,10.40
2015,02,20,12,56,10.40
2015,02,20,12,57,10.40
2015,02,20,12,58,10.40
2015,02,20,12,59,10.40
2015,02,20,13,00,10.40
2015,02,20,13,01,10.40
2015,02,20,13,02,10.40
2015,02,20,13,03,10.30
2015,02,20,13,04,10.30
2015,02,20,13,05,10.20
2015,02,20,13,06,10.20
2015,02,20,13,07,10.20
2015,02,20,13,08,10.20
2015,02,20,13,09,10.20
2015,02,20,13,10,10.20
2015,02,20,13,11,10.20
2015,02,20,13,12,10.10
2015,02,20,13,13,10.10
2015,02,20,13,14,10.10
2015,02,20,13,15,10.10
2015,02,20,13,16,10.10
2015,02,20,13,17,10.10
2015,02,20,13,18,10.10
2015,02,20,13,19,10.10
2015,02,20,13,20,10.10
2015,02,20,13,21,10.10
2015,02,20,13,22,10.20
2015,02,20,13,23,10.20
2015,02,20,13,24,10.20
2015,02,20,13,25,10.20
2015,02,20,13,26,10.30
2015,02,20,13,27,10.30
2015,02,20,13,28,10.30
2015,02,20,13,29,10.30
2015,02,20,13,30,10.40
2015,02,20,13,31,10.40
2015,02,20,13,32,10.40
2015,02,20,13,33,10.40
2015,02,20,13,34,10.50
2015,02,20,13,35,10.60
2015,02,20,13,36,10.60
2015,02,20,13,37,10.60
2015,02,20,13,38,10.50
2015,02,20,13,39,10.40
2015,02,20,13,40,10.40
2015,02,20,13,41,10.40
2015,02,20,13,42,10.40
2015,02,20,13,43,10.40
2015,02,20,13,44,10.40
2015,02,20,13,45,10.40
2015,02,20,13,46,10.40
2015,02,20,13,47,10.40
2015,02,20,13,48,10.30
2015,02,20,13,49,10.30
2015,02,20,13,50,10.30
2015,02,20,13,51,10.30
2015,02,20,13,52,10.20
2015,02,20,13,53,10.20
2015,02,20,13,54,10.20
2015,02,20,13,55,10.20
2015,02,20,13,56,10.20
2015,02,20,13,57,10.20
2015,02,20,13,58,10.20
2015,02,20,13,59,10.20
2015,02,20,14,00,10.20
2015,02,20,14,01,10.20
2015,02,20,14,02,10.20
2015,02,20,14,03,10.30
2015,02,20,14,04,10.30
2015,02,20,14,05,10.30
2015,02,20,14,06,10.40
2015,02,20,14,07,10.40
2015,02,20,14,08,10.50
2015,02,20,14,09,10.60
2015,02,20,14,10,10.60
2015,02,20,14,11,10.60
2015,02,20,14,12,10.70
2015,02,20,14,13,10.70
2015,02,20,14,14,10.80
2015,02,20,14,15,10.90
2015,02,20,14,16,10.90
2015,02,20,14,17,10.90
2015,02,20,14,18,10.90
2015,02,20,14,19,10.90
2015,02,20,14,20,10.90
2015,02,20,14,21,11.00
2015,02,20,14,22,11.10
2015,02,20,14,23,11.10
2015,02,20,14,24,11.10
2015,02,20,14,25,11.20
2015,02,20,14,26,11.20
2015,02,20,14,27,11.30
2015,02,20,14,28,11.30
2015,02,20,14,29,11.40
2015,02,20,14,30,11.40
2015,02,20,14,31,11.50
2015,02,20,14,32,11.60
2015,02,20,14,33,11.60
2015,02,20,14,34,11.60
2015,02,20,14,35,11.60
2015,02,20,14,36,11.60
2015,02,20,14,37,11.60
2015,02,20,14,38,11.60
2015,02,20,14,39,11.50
2015,02,20,14,40,11.40
2015,02,20,14,41,11.40
2015,02,20,14,42,11.40
2015,02,20,14,43,11.40
2015,02,20,14,44,11.40
2015,02,20,14,45,11.40
2015,02,20,14,46,11.40
2015,02,20,14,47,11.40
2015,02,20,14,48,11.40
2015,02,20,14,49,11.50
2015,02,20,14,50,11.60
2015,02,20,14,51,11.60
2015,02,20,14,52,11.60
2015,02,20,14,53,11.60
2015,02,20,14,54,11.60
2015,02,20,14,55,11.50
2015,02,20,14,56,11.40
2015,02,20,14,57,11.30
2015,02,20,14,58,11.30
2015,02,20,14,59,11.20
2015,02,20,15,00,11.20
2015,02,20,15,01,11.10
2015,02,20,15,02,11.10
2015,02,20,15,03,11.00
2015,02,20,15,04,10.90
2015,02,20,15,05,10.80
2015,02,20,15,06,10.70
2015,02,20,15,07,10.70
2015,02,20,15,08,10.60
2015,02,20,15,09,10.60
2015,02,20,15,10,10.70
2015,02,20,15,11,10.70
2015,02,20,15,12,10.70
2015,02,20,15,13,10.70
2015,02,20,15,14,10.60
2015,02,20,15,15,10.60
2015,02,20,15,16,10.60
2015,02,20,15,17,10.60
2015,02,20,15,18,10.60
2015,02,20,15,19,10.60
2015,02,20,15,20,10.60
2015,02,20,15,21,10.60
2015,02,20,15,22,10.40
2015,02,20,15,23,10.40
2015,02,20,15,24,10.40
2015,02,20,15,25,10.40
2015,02,20,15,26,10.40
2015,02,20,15,27,10.40
2015,02,20,15,28,10.40
2015,02,20,15,29,10.40
2015,02,20,15,30,10.40
2015,02,20,15,31,10.40
2015,02,20,15,32,10.40
2015,02,20,15,33,10.40
2015,02,20,15,34,10.40
2015,02,20,15,35,10.40
2015,02,20,15,36,10.40
2015,02,20,15,37,10.50
2015,02,20,15,38,10.60
2015,02,20,15,39,10.60
2015,02,20,15,40,10.60
2015,02,20,15,41,10.60
2015,02,20,15,42,10.60
2015,02,20,15,43,10.60
2015,02,20,15,44,10.60
2015,02,20,15,45,10.50
2015,02,20,15,46,10.40
2015,02,20,15,47,10.40
2015,02,20,15,48,10.50
2015,02,20,15,49,10.40
2015,02,20,15,50,10.40
2015,02,20,15,51,10.40
2015,02,20,15,52,10.40
2015,02,20,15,53,10.40
2015,02,20,15,54,10.40
2015,02,20,15,55,10.40
2015,02,20,15,56,10.40
2015,02,20,15,57,10.40
2015,02,20,15,58,10.40
2015,02,20,15,59,10.40
2015,02,20,16,00,10.30
2015,02,20,16,01,10.20
2015,02,20,16,02,10.20
2015,02,20,16,03,10.20
2015,02,20,16,04,10.10
2015,02,20,16,05,10.10
2015,02,20,16,06,10.10
2015,02,20,16,07,10.10
2015,02,20,16,08,10.10
2015,02,20,16,09,10.10
2015,02,20,16,10,10.00
2015,02,20,16,11,9.90
2015,02,20,16,12,9.90
2015,02,20,16,13,9.90
2015,02,20,16,14,9.80
2015,02,20,16,15,9.80
2015,02,20,16,16,9.70
2015,02,20,16,17,9.70
2015,02,20,16,18,9.70
2015,02,20,16,19,9.70
2015,02,20,16,20,9.70
2015,02,20,16,21,9.60
2015,02,20,16,22,9.60
2015,02,20,16,23,9.60
2015,02,20,16,24,9.60
2015,02,20,16,25,9.60
2015,02,20,16,26,9.50
2015,02,20,16,27,9.50
2015,02,20,16,28,9.50
2015,02,20,16,29,9.40
2015,02,20,16,30,9.30
2015,02,20,16,31,9.30
2015,02,20,16,32,9.30
2015,02,20,16,33,9.30
2015,02,20,16,34,9.20
2015,02,20,16,35,9.30
2015,02,20,16,36,9.30
2015,02,20,16,37,9.30
2015,02,20,16,38,9.30
2015,02,20,16,39,9.30
2015,02,20,16,40,9.30
2015,02,20,16,41,9.30
2015,02,20,16,42,9.30
2015,02,20,16,43,9.30
2015,02,20,16,44,9.30
2015,02,20,16,45,9.30
2015,02,20,16,46,9.20
2015,02,20,16,47,9.20
2015,02,20,16,48,9.20
2015,02,20,16,49,9.20
2015,02,20,16,50,9.20
2015,02,20,16,51,9.20
2015,02,20,16,52,9.20
2015,02,20,16,53,9.20
2015,02,20,16,54,9.20
2015,02,20,16,55,9.20
2015,02,20,16,56,9.10
2015,02,20,16,57,9.10
2015,02,20,16,58,9.00
2015,02,20,16,59,9.00
2015,02,20,17,00,9.00
2015,02,20,17,01,8.90
2015,02,20,17,02,8.90
2015,02,20,17,03,8.90
2015,02,20,17,04,8.90
2015,02,20,17,05,8.80
2015,02,20,17,06,8.80
2015,02,20,17,07,8.80
2015,02,20,17,08,8.80
2015,02,20,17,09,8.80
2015,02,20,17,10,8.80
2015,02,20,17,11,8.80
2015,02,20,17,12,8.80
2015,02,20,17,13,8.80
2015,02,20,17,14,8.80
2015,02,20,17,15,8.80
2015,02,20,17,16,8.80
2015,02,20,17,17,8.80
2015,02,20,17,18,8.80
2015,02,20,17,19,8.70
2015,02,20,17,20,8.70
2015,02,20,17,21,8.70
2015,02,20,17,22,8.70
2015,02,20,17,23,8.70
2015,02,20,17,24,8.70
2015,02,20,17,25,8.70
2015,02,20,17,26,8.70
2015,02,20,17,27,8.70
2015,02,20,17,28,8.70
2015,02,20,17,29,8.70
2015,02,20,17,30,8.70
2015,02,20,17,31,8.60
2015,02,20,17,32,8.60
2015,02,20,17,33,8.60
2015,02,20,17,34,8.60
2015,02,20,17,35,8.60
2015,02,20,17,36,8.50
2015,02,20,17,37,8.50
2015,02,20,17,38,8.50
2015,02,20,17,39,8.50
2015,02,20,17,40,8.50
2015,02,20,17,41,8.40
2015,02,20,17,42,8.40
2015,02,20,17,43,8.40
2015,02,20,17,44,8.30
2015,02,20,17,45,8.30
2015,02,20,17,46,8.30
2015,02,20,17,47,8.30
2015,02,20,17,48,8.20
2015,02,20,17,49,8.20
2015,02,20,17,50,8.20
2015,02,20,17,51,8.20
2015,02,20,17,52,8.20
2015,02,20,17,53,8.20
2015,02,20,17,54,8.20
2015,02,20,17,55,8.20
2015,02,20,17,56,8.20
2015,02,20,17,57,8.20
2015,02,20,17,58,8.20
2015,02,20,17,59,8.20
2015,02,20,18,00,8.20
2015,02,20,18,01,8.20
